contact:dominique.lefevre@mio.osupytheas.fr, maurice.libes@osupytheas.fr, didier.mallarino@osupytheas.fr
Project:EMSO http://www.emso-fr.org/EMSO-France
Depth: 2436.0 m
Title:EMSO Ligure Ouest : Data MII capteur MICROCAT
DateTime_Computer,Latitude,Longitude,Temperature,Conductivity,Pressure,DateTime_Instrument
DateTime_Computer,Latitude,Longitude,degC,S m-1,dbar,DateTime_Instrument
2021-08-01T00:00:29Z,42.805,6.029,13.3040,4.60046,2470.497,2021-8-01T02:01:46Z
2021-08-01T00:03:32Z,42.805,6.029,13.3031,4.60068,2470.46,2021-8-01T02:04:49Z
2021-08-01T00:06:35Z,42.805,6.029,13.3002,4.60067,2470.437,2021-8-01T02:07:52Z
2021-08-01T00:09:38Z,42.805,6.029,13.3026,4.60127,2470.413,2021-8-01T02:10:56Z
2021-08-01T00:12:41Z,42.805,6.029,13.3040,4.60098,2470.45,2021-8-01T02:13:59Z
2021-08-01T00:15:44Z,42.805,6.029,13.3002,4.60081,2470.437,2021-8-01T02:17:02Z
2021-08-01T00:18:48Z,42.805,6.029,13.3014,4.60095,2470.474,2021-8-01T02:20:05Z
2021-08-01T00:21:51Z,42.805,6.029,13.3024,4.60098,2470.474,2021-8-01T02:23:08Z
2021-08-01T00:24:54Z,42.805,6.029,13.3018,4.60084,2470.437,2021-8-01T02:26:11Z
2021-08-01T00:27:57Z,42.805,6.029,13.3014,4.60109,2470.446,2021-8-01T02:29:14Z
2021-08-01T00:31:00Z,42.805,6.029,13.2996,4.60080,2470.45,2021-8-01T02:32:17Z
2021-08-01T00:34:03Z,42.805,6.029,13.3001,4.60057,2470.437,2021-8-01T02:35:21Z
2021-08-01T00:37:06Z,42.805,6.029,13.3006,4.60061,2470.437,2021-8-01T02:38:24Z
2021-08-01T00:40:09Z,42.805,6.029,13.3006,4.60061,2470.46,2021-8-01T02:41:27Z
2021-08-01T00:43:13Z,42.805,6.029,13.2999,4.60099,2470.474,2021-8-01T02:44:30Z
2021-08-01T00:46:16Z,42.805,6.029,13.3000,4.60059,2470.437,2021-8-01T02:47:33Z
2021-08-01T00:49:19Z,42.805,6.029,13.3013,4.60051,2470.45,2021-8-01T02:50:36Z
2021-08-01T00:52:22Z,42.805,6.029,13.3003,4.60067,2470.474,2021-8-01T02:53:39Z
2021-08-01T00:55:25Z,42.805,6.029,13.3007,4.60084,2470.46,2021-8-01T02:56:42Z
2021-08-01T00:58:28Z,42.805,6.029,13.3009,4.60096,2470.46,2021-8-01T02:59:46Z
2021-08-01T01:01:31Z,42.805,6.029,13.3009,4.60080,2470.474,2021-8-01T03:02:49Z
2021-08-01T01:04:34Z,42.805,6.029,13.3018,4.60078,2470.437,2021-8-01T03:05:52Z
2021-08-01T01:07:38Z,42.805,6.029,13.3008,4.60055,2470.46,2021-8-01T03:08:55Z
2021-08-01T01:10:41Z,42.805,6.029,13.3008,4.60069,2470.46,2021-8-01T03:11:58Z
2021-08-01T01:13:44Z,42.805,6.029,13.3050,4.60101,2470.474,2021-8-01T03:15:01Z
2021-08-01T01:16:47Z,42.805,6.029,13.3024,4.60063,2470.437,2021-8-01T03:18:04Z
2021-08-01T01:19:50Z,42.805,6.029,13.3014,4.60070,2470.437,2021-8-01T03:21:07Z
2021-08-01T01:22:53Z,42.805,6.029,13.3009,4.60074,2470.437,2021-8-01T03:24:10Z
2021-08-01T01:25:56Z,42.805,6.029,13.3000,4.60070,2470.437,2021-8-01T03:27:14Z
2021-08-01T01:28:59Z,42.805,6.029,13.3000,4.60047,2470.474,2021-8-01T03:30:17Z
2021-08-01T01:32:02Z,42.805,6.029,13.3007,4.60067,2470.45,2021-8-01T03:33:20Z
2021-08-01T01:35:06Z,42.805,6.029,13.2999,4.60075,2470.437,2021-8-01T03:36:23Z
2021-08-01T01:38:09Z,42.805,6.029,13.3009,4.60066,2470.39,2021-8-01T03:39:26Z
2021-08-01T01:41:12Z,42.805,6.029,13.3019,4.60073,2470.413,2021-8-01T03:42:29Z
2021-08-01T01:44:15Z,42.805,6.029,13.3009,4.60054,2470.413,2021-8-01T03:45:32Z
2021-08-01T01:47:18Z,42.805,6.029,13.2999,4.60057,2470.45,2021-8-01T03:48:35Z
2021-08-01T01:50:21Z,42.805,6.029,13.3002,4.60052,2470.413,2021-8-01T03:51:38Z
2021-08-01T01:53:24Z,42.805,6.029,13.3009,4.60069,2470.437,2021-8-01T03:54:42Z
2021-08-01T01:56:27Z,42.805,6.029,13.3002,4.60079,2470.427,2021-8-01T03:57:45Z
2021-08-01T01:59:31Z,42.805,6.029,13.3004,4.60070,2470.437,2021-8-01T04:00:48Z
2021-08-01T02:02:34Z,42.805,6.029,13.3006,4.60056,2470.413,2021-8-01T04:03:51Z
2021-08-01T02:05:37Z,42.805,6.029,13.2998,4.60051,2470.437,2021-8-01T04:06:54Z
2021-08-01T02:08:40Z,42.805,6.029,13.2999,4.60049,2470.39,2021-8-01T04:09:57Z
2021-08-01T02:11:43Z,42.805,6.029,13.3001,4.60057,2470.404,2021-8-01T04:13:00Z
2021-08-01T02:14:46Z,42.805,6.029,13.3004,4.60058,2470.437,2021-8-01T04:16:03Z
2021-08-01T02:17:49Z,42.805,6.029,13.3012,4.60061,2470.427,2021-8-01T04:19:07Z
2021-08-01T02:20:52Z,42.805,6.029,13.3000,4.60037,2470.437,2021-8-01T04:22:10Z
2021-08-01T02:23:55Z,42.805,6.029,13.3009,4.60046,2470.437,2021-8-01T04:25:13Z
2021-08-01T02:26:59Z,42.805,6.029,13.3015,4.60038,2470.437,2021-8-01T04:28:16Z
2021-08-01T02:30:02Z,42.805,6.029,13.3006,4.60049,2470.413,2021-8-01T04:31:19Z
2021-08-01T02:33:05Z,42.805,6.029,13.3000,4.60062,2470.413,2021-8-01T04:34:22Z
2021-08-01T02:36:08Z,42.805,6.029,13.3011,4.60056,2470.474,2021-8-01T04:37:25Z
2021-08-01T02:39:11Z,42.805,6.029,13.3008,4.60069,2470.399,2021-8-01T04:40:28Z
2021-08-01T02:42:14Z,42.805,6.029,13.3012,4.60050,2470.413,2021-8-01T04:43:31Z
2021-08-01T02:45:17Z,42.805,6.029,13.3011,4.60077,2470.45,2021-8-01T04:46:35Z
2021-08-01T02:48:20Z,42.805,6.029,13.3010,4.60057,2470.413,2021-8-01T04:49:38Z
2021-08-01T02:51:24Z,42.805,6.029,13.3011,4.60061,2470.39,2021-8-01T04:52:41Z
2021-08-01T02:54:27Z,42.805,6.029,13.3006,4.60039,2470.46,2021-8-01T04:55:44Z
2021-08-01T02:57:30Z,42.805,6.029,13.3004,4.60051,2470.39,2021-8-01T04:58:47Z
2021-08-01T03:00:33Z,42.805,6.029,13.2998,4.60053,2470.413,2021-8-01T05:01:50Z
2021-08-01T03:03:36Z,42.805,6.029,13.2998,4.60028,2470.45,2021-8-01T05:04:53Z
2021-08-01T03:06:39Z,42.805,6.029,13.2996,4.60035,2470.427,2021-8-01T05:07:56Z
2021-08-01T03:09:42Z,42.805,6.029,13.2996,4.60039,2470.404,2021-8-01T05:11:00Z
2021-08-01T03:12:45Z,42.805,6.029,13.3004,4.60030,2470.427,2021-8-01T05:14:03Z
2021-08-01T03:15:48Z,42.805,6.029,13.3006,4.60038,2470.413,2021-8-01T05:17:06Z
2021-08-01T03:18:52Z,42.805,6.029,13.2997,4.60037,2470.413,2021-8-01T05:20:09Z
2021-08-01T03:21:55Z,42.805,6.029,13.3004,4.60034,2470.404,2021-8-01T05:23:12Z
2021-08-01T03:24:58Z,42.805,6.029,13.2998,4.60031,2470.427,2021-8-01T05:26:15Z
2021-08-01T03:28:01Z,42.805,6.029,13.2998,4.60042,2470.413,2021-8-01T05:29:18Z
2021-08-01T03:31:04Z,42.805,6.029,13.2999,4.60050,2470.437,2021-8-01T05:32:21Z
2021-08-01T03:34:07Z,42.805,6.029,13.2997,4.60028,2470.45,2021-8-01T05:35:24Z
2021-08-01T03:37:10Z,42.805,6.029,13.2997,4.60038,2470.404,2021-8-01T05:38:28Z
2021-08-01T03:40:13Z,42.805,6.029,13.2999,4.60036,2470.39,2021-8-01T05:41:31Z
2021-08-01T03:43:17Z,42.805,6.029,13.2998,4.60022,2470.39,2021-8-01T05:44:34Z
2021-08-01T03:46:20Z,42.805,6.029,13.3009,4.60039,2470.404,2021-8-01T05:47:37Z
2021-08-01T03:49:23Z,42.805,6.029,13.3008,4.60029,2470.413,2021-8-01T05:50:40Z
2021-08-01T03:52:26Z,42.805,6.029,13.2995,4.60026,2470.413,2021-8-01T05:53:43Z
2021-08-01T03:55:29Z,42.805,6.029,13.2994,4.60031,2470.413,2021-8-01T05:56:46Z
2021-08-01T03:58:32Z,42.805,6.029,13.2999,4.60044,2470.366,2021-8-01T05:59:49Z
2021-08-01T04:01:35Z,42.805,6.029,13.2995,4.60037,2470.39,2021-8-01T06:02:53Z
2021-08-01T04:04:38Z,42.805,6.029,13.2999,4.60036,2470.413,2021-8-01T06:05:56Z
2021-08-01T04:07:41Z,42.805,6.029,13.2995,4.60029,2470.437,2021-8-01T06:08:59Z
2021-08-01T04:10:45Z,42.805,6.029,13.2996,4.60026,2470.413,2021-8-01T06:12:02Z
2021-08-01T04:13:48Z,42.805,6.029,13.3000,4.60038,2470.39,2021-8-01T06:15:05Z
2021-08-01T04:16:51Z,42.805,6.029,13.2998,4.60019,2470.413,2021-8-01T06:18:08Z
2021-08-01T04:19:54Z,42.805,6.029,13.3007,4.60033,2470.437,2021-8-01T06:21:11Z
2021-08-01T04:22:57Z,42.805,6.029,13.2991,4.60039,2470.404,2021-8-01T06:24:14Z
2021-08-01T04:26:00Z,42.805,6.029,13.3000,4.60037,2470.427,2021-8-01T06:27:17Z
2021-08-01T04:29:03Z,42.805,6.029,13.3012,4.60024,2470.38,2021-8-01T06:30:21Z
2021-08-01T04:32:06Z,42.805,6.029,13.3005,4.60062,2470.413,2021-8-01T06:33:24Z
2021-08-01T04:35:10Z,42.805,6.029,13.2998,4.60072,2470.404,2021-8-01T06:36:27Z
2021-08-01T04:38:13Z,42.805,6.029,13.3006,4.60042,2470.427,2021-8-01T06:39:30Z
2021-08-01T04:41:16Z,42.805,6.029,13.2999,4.60031,2470.413,2021-8-01T06:42:33Z
2021-08-01T04:44:19Z,42.805,6.029,13.2992,4.60026,2470.39,2021-8-01T06:45:36Z
2021-08-01T04:47:22Z,42.805,6.029,13.3006,4.60031,2470.413,2021-8-01T06:48:39Z
2021-08-01T04:50:25Z,42.805,6.029,13.3011,4.60046,2470.366,2021-8-01T06:51:42Z
2021-08-01T04:53:28Z,42.805,6.029,13.3002,4.60033,2470.427,2021-8-01T06:54:46Z
2021-08-01T04:56:31Z,42.805,6.029,13.3019,4.60068,2470.39,2021-8-01T06:57:49Z
2021-08-01T04:59:34Z,42.805,6.029,13.3006,4.60056,2470.427,2021-8-01T07:00:52Z
2021-08-01T05:02:38Z,42.805,6.029,13.2997,4.60043,2470.39,2021-8-01T07:03:55Z
2021-08-01T05:05:41Z,42.805,6.029,13.2996,4.60029,2470.404,2021-8-01T07:06:58Z
2021-08-01T05:08:44Z,42.805,6.029,13.3010,4.60049,2470.366,2021-8-01T07:10:01Z
2021-08-01T05:11:47Z,42.805,6.029,13.2996,4.60053,2470.413,2021-8-01T07:13:04Z
2021-08-01T05:14:50Z,42.805,6.029,13.2996,4.60057,2470.38,2021-8-01T07:16:07Z
2021-08-01T05:17:53Z,42.805,6.029,13.2993,4.60039,2470.39,2021-8-01T07:19:11Z
2021-08-01T05:20:56Z,42.805,6.029,13.2998,4.60031,2470.38,2021-8-01T07:22:14Z
2021-08-01T05:23:59Z,42.805,6.029,13.3000,4.60031,2470.404,2021-8-01T07:25:17Z
2021-08-01T05:27:03Z,42.805,6.029,13.2998,4.60030,2470.366,2021-8-01T07:28:20Z
2021-08-01T05:30:06Z,42.805,6.029,13.3006,4.60043,2470.366,2021-8-01T07:31:23Z
2021-08-01T05:33:09Z,42.805,6.029,13.2999,4.60046,2470.404,2021-8-01T07:34:26Z
2021-08-01T05:36:12Z,42.805,6.029,13.3006,4.60031,2470.343,2021-8-01T07:37:29Z
2021-08-01T05:39:15Z,42.805,6.029,13.2993,4.60035,2470.366,2021-8-01T07:40:32Z
2021-08-01T05:42:18Z,42.805,6.029,13.2995,4.60016,2470.357,2021-8-01T07:43:35Z
2021-08-01T05:45:21Z,42.805,6.029,13.3000,4.60023,2470.38,2021-8-01T07:46:39Z
2021-08-01T05:48:24Z,42.805,6.029,13.3003,4.60039,2470.39,2021-8-01T07:49:42Z
2021-08-01T05:51:28Z,42.805,6.029,13.3002,4.60031,2470.38,2021-8-01T07:52:45Z
2021-08-01T05:54:31Z,42.805,6.029,13.3000,4.60016,2470.38,2021-8-01T07:55:48Z
2021-08-01T05:57:34Z,42.805,6.029,13.2992,4.60024,2470.357,2021-8-01T07:58:51Z
2021-08-01T06:00:37Z,42.805,6.029,13.2991,4.60032,2470.366,2021-8-01T08:01:54Z
2021-08-01T06:03:40Z,42.805,6.029,13.2997,4.60032,2470.39,2021-8-01T08:04:57Z
2021-08-01T06:06:43Z,42.805,6.029,13.2998,4.60034,2470.366,2021-8-01T08:08:00Z
2021-08-01T06:09:46Z,42.805,6.029,13.3006,4.60036,2470.366,2021-8-01T08:11:04Z
2021-08-01T06:12:49Z,42.805,6.029,13.3004,4.60052,2470.39,2021-8-01T08:14:07Z
2021-08-01T06:15:52Z,42.805,6.029,13.2994,4.60036,2470.366,2021-8-01T08:17:10Z
2021-08-01T06:18:56Z,42.805,6.029,13.3002,4.60024,2470.38,2021-8-01T08:20:13Z
2021-08-01T06:21:59Z,42.805,6.029,13.3000,4.60046,2470.366,2021-8-01T08:23:16Z
2021-08-01T06:25:02Z,42.805,6.029,13.2994,4.60031,2470.357,2021-8-01T08:26:19Z
2021-08-01T06:28:05Z,42.805,6.029,13.2997,4.60051,2470.343,2021-8-01T08:29:22Z
2021-08-01T06:31:08Z,42.805,6.029,13.3007,4.60046,2470.343,2021-8-01T08:32:25Z
2021-08-01T06:34:11Z,42.805,6.029,13.3000,4.60048,2470.343,2021-8-01T08:35:28Z
2021-08-01T06:37:14Z,42.805,6.029,13.3009,4.60044,2470.404,2021-8-01T08:38:32Z
2021-08-01T06:40:17Z,42.805,6.029,13.3004,4.60062,2470.357,2021-8-01T08:41:35Z
2021-08-01T06:43:21Z,42.805,6.029,13.3018,4.60049,2470.366,2021-8-01T08:44:38Z
2021-08-01T06:46:24Z,42.805,6.029,13.3015,4.60045,2470.366,2021-8-01T08:47:41Z
2021-08-01T06:49:27Z,42.805,6.029,13.3005,4.60032,2470.366,2021-8-01T08:50:44Z
2021-08-01T06:52:30Z,42.805,6.029,13.3014,4.60062,2470.343,2021-8-01T08:53:47Z
2021-08-01T06:55:33Z,42.805,6.029,13.3011,4.60046,2470.343,2021-8-01T08:56:50Z
2021-08-01T06:58:36Z,42.805,6.029,13.3017,4.60078,2470.366,2021-8-01T08:59:53Z
2021-08-01T07:01:39Z,42.805,6.029,13.3016,4.60052,2470.404,2021-8-01T09:02:57Z
2021-08-01T07:04:42Z,42.805,6.029,13.3029,4.60048,2470.366,2021-8-01T09:06:00Z
2021-08-01T07:07:45Z,42.805,6.029,13.3029,4.60044,2470.39,2021-8-01T09:09:03Z
2021-08-01T07:10:49Z,42.805,6.029,13.3020,4.60047,2470.404,2021-8-01T09:12:06Z
2021-08-01T07:13:52Z,42.805,6.029,13.3015,4.60062,2470.38,2021-8-01T09:15:09Z
2021-08-01T07:16:55Z,42.805,6.029,13.3004,4.60049,2470.366,2021-8-01T09:18:12Z
2021-08-01T07:19:58Z,42.805,6.029,13.3018,4.60040,2470.343,2021-8-01T09:21:15Z
2021-08-01T07:23:01Z,42.805,6.029,13.3004,4.60064,2470.366,2021-8-01T09:24:18Z
2021-08-01T07:26:04Z,42.805,6.029,13.3013,4.60052,2470.38,2021-8-01T09:27:21Z
2021-08-01T07:29:07Z,42.805,6.029,13.3004,4.60062,2470.366,2021-8-01T09:30:25Z
2021-08-01T07:32:10Z,42.805,6.029,13.3021,4.60036,2470.366,2021-8-01T09:33:28Z
2021-08-01T07:35:13Z,42.805,6.029,13.3029,4.60059,2470.366,2021-8-01T09:36:31Z
2021-08-01T07:38:17Z,42.805,6.029,13.3026,4.60048,2470.38,2021-8-01T09:39:34Z
2021-08-01T07:41:20Z,42.805,6.029,13.3034,4.60052,2470.343,2021-8-01T09:42:37Z
2021-08-01T07:44:23Z,42.805,6.029,13.3027,4.60069,2470.357,2021-8-01T09:45:40Z
2021-08-01T07:47:26Z,42.805,6.029,13.3012,4.60056,2470.38,2021-8-01T09:48:43Z
2021-08-01T07:50:29Z,42.805,6.029,13.3004,4.60079,2470.343,2021-8-01T09:51:46Z
2021-08-01T07:53:32Z,42.805,6.029,13.3009,4.60061,2470.334,2021-8-01T09:54:50Z
2021-08-01T07:56:35Z,42.805,6.029,13.3017,4.60057,2470.38,2021-8-01T09:57:53Z
2021-08-01T07:59:38Z,42.805,6.029,13.3021,4.60049,2470.343,2021-8-01T10:00:56Z
2021-08-01T08:02:42Z,42.805,6.029,13.3030,4.60044,2470.343,2021-8-01T10:03:59Z
2021-08-01T08:05:45Z,42.805,6.029,13.3025,4.60023,2470.38,2021-8-01T10:07:02Z
2021-08-01T08:08:48Z,42.805,6.029,13.3035,4.60068,2470.38,2021-8-01T10:10:05Z
2021-08-01T08:11:51Z,42.805,6.029,13.3030,4.60081,2470.366,2021-8-01T10:13:08Z
2021-08-01T08:14:54Z,42.805,6.029,13.3026,4.60079,2470.38,2021-8-01T10:16:11Z
2021-08-01T08:17:57Z,42.805,6.029,13.3034,4.60079,2470.357,2021-8-01T10:19:15Z
2021-08-01T08:21:00Z,42.805,6.029,13.3038,4.60041,2470.357,2021-8-01T10:22:18Z
2021-08-01T08:24:03Z,42.805,6.029,13.3024,4.60054,2470.343,2021-8-01T10:25:21Z
2021-08-01T08:27:07Z,42.805,6.029,13.3014,4.60054,2470.343,2021-8-01T10:28:24Z
2021-08-01T08:30:10Z,42.805,6.029,13.3031,4.60073,2470.38,2021-8-01T10:31:27Z
2021-08-01T08:33:13Z,42.805,6.029,13.3026,4.60060,2470.366,2021-8-01T10:34:30Z
2021-08-01T08:36:16Z,42.805,6.029,13.3041,4.60059,2470.343,2021-8-01T10:37:33Z
2021-08-01T08:39:19Z,42.805,6.029,13.3035,4.60049,2470.366,2021-8-01T10:40:36Z
2021-08-01T08:42:22Z,42.805,6.029,13.3033,4.60079,2470.357,2021-8-01T10:43:40Z
2021-08-01T08:45:25Z,42.805,6.029,13.3036,4.60087,2470.343,2021-8-01T10:46:43Z
2021-08-01T08:48:28Z,42.805,6.029,13.3026,4.60086,2470.38,2021-8-01T10:49:46Z
2021-08-01T08:51:32Z,42.805,6.029,13.3037,4.60069,2470.32,2021-8-01T10:52:49Z
2021-08-01T08:54:35Z,42.805,6.029,13.3029,4.60069,2470.404,2021-8-01T10:55:52Z
2021-08-01T08:57:38Z,42.805,6.029,13.3040,4.60084,2470.32,2021-8-01T10:58:55Z
2021-08-01T09:00:41Z,42.805,6.029,13.3018,4.60063,2470.357,2021-8-01T11:01:58Z
2021-08-01T09:03:44Z,42.805,6.029,13.3048,4.60060,2470.353,2021-8-01T11:05:01Z
2021-08-01T09:06:47Z,42.805,6.029,13.3039,4.60052,2470.343,2021-8-01T11:08:05Z
2021-08-01T09:09:50Z,42.805,6.029,13.3051,4.60084,2470.39,2021-8-01T11:11:08Z
2021-08-01T09:12:53Z,42.805,6.029,13.3049,4.60059,2470.404,2021-8-01T11:14:11Z
2021-08-01T09:15:57Z,42.805,6.029,13.3031,4.60069,2470.343,2021-8-01T11:17:14Z
2021-08-01T09:19:00Z,42.805,6.029,13.3031,4.60046,2470.357,2021-8-01T11:20:17Z
2021-08-01T09:22:03Z,42.805,6.029,13.3037,4.60050,2470.357,2021-8-01T11:23:20Z
2021-08-01T09:25:06Z,42.805,6.029,13.3036,4.60054,2470.38,2021-8-01T11:26:23Z
2021-08-01T09:28:09Z,42.805,6.029,13.3030,4.60074,2470.33,2021-8-01T11:29:26Z
2021-08-01T09:31:12Z,42.805,6.029,13.3037,4.60072,2470.366,2021-8-01T11:32:30Z
2021-08-01T09:34:15Z,42.805,6.029,13.3040,4.60104,2470.366,2021-8-01T11:35:33Z
2021-08-01T09:37:18Z,42.805,6.029,13.3063,4.60111,2470.366,2021-8-01T11:38:36Z
2021-08-01T09:40:22Z,42.805,6.029,13.3025,4.60099,2470.38,2021-8-01T11:41:39Z
2021-08-01T09:43:25Z,42.805,6.029,13.3038,4.60077,2470.366,2021-8-01T11:44:42Z
2021-08-01T09:46:28Z,42.805,6.029,13.3033,4.60069,2470.366,2021-8-01T11:47:45Z
2021-08-01T09:49:31Z,42.805,6.029,13.3046,4.60092,2470.39,2021-8-01T11:50:48Z
2021-08-01T09:52:34Z,42.805,6.029,13.3040,4.60079,2470.38,2021-8-01T11:53:51Z
2021-08-01T09:55:37Z,42.805,6.029,13.3042,4.60087,2470.366,2021-8-01T11:56:55Z
2021-08-01T09:58:40Z,42.805,6.029,13.3044,4.60072,2470.404,2021-8-01T11:59:58Z
2021-08-01T10:01:43Z,42.805,6.029,13.3041,4.60081,2470.343,2021-8-01T12:03:01Z
2021-08-01T10:04:46Z,42.805,6.029,13.3056,4.60073,2470.404,2021-8-01T12:06:04Z
2021-08-01T10:07:50Z,42.805,6.029,13.3034,4.60077,2470.39,2021-8-01T12:09:07Z
2021-08-01T10:10:53Z,42.805,6.029,13.3048,4.60073,2470.38,2021-8-01T12:12:10Z
2021-08-01T10:13:56Z,42.805,6.029,13.3031,4.60084,2470.427,2021-8-01T12:15:13Z
2021-08-01T10:16:59Z,42.805,6.029,13.3058,4.60075,2470.404,2021-8-01T12:18:16Z
2021-08-01T10:20:02Z,42.805,6.029,13.3043,4.60092,2470.404,2021-8-01T12:21:20Z
2021-08-01T10:23:05Z,42.805,6.029,13.3058,4.60116,2470.404,2021-8-01T12:24:23Z
2021-08-01T10:26:08Z,42.805,6.029,13.3056,4.60106,2470.38,2021-8-01T12:27:26Z
2021-08-01T10:29:12Z,42.805,6.029,13.3058,4.60125,2470.366,2021-8-01T12:30:29Z
2021-08-01T10:32:15Z,42.805,6.029,13.3046,4.60081,2470.404,2021-8-01T12:33:32Z
2021-08-01T10:35:18Z,42.805,6.029,13.3067,4.60110,2470.366,2021-8-01T12:36:35Z
2021-08-01T10:38:21Z,42.805,6.029,13.3029,4.60067,2470.39,2021-8-01T12:39:38Z
2021-08-01T10:41:24Z,42.805,6.029,13.3051,4.60082,2470.366,2021-8-01T12:42:41Z
2021-08-01T10:44:27Z,42.805,6.029,13.3056,4.60104,2470.413,2021-8-01T12:45:44Z
2021-08-01T10:47:30Z,42.805,6.029,13.3060,4.60053,2470.427,2021-8-01T12:48:48Z
2021-08-01T10:50:33Z,42.805,6.029,13.3011,4.60066,2470.45,2021-8-01T12:51:51Z
2021-08-01T10:53:37Z,42.805,6.029,13.3026,4.60060,2470.437,2021-8-01T12:54:54Z
2021-08-01T10:56:40Z,42.805,6.029,13.3036,4.60072,2470.427,2021-8-01T12:57:57Z
2021-08-01T10:59:43Z,42.805,6.029,13.3021,4.60050,2470.413,2021-8-01T13:01:00Z
2021-08-01T11:02:46Z,42.805,6.029,13.3046,4.60054,2470.366,2021-8-01T13:04:03Z
2021-08-01T11:05:49Z,42.805,6.029,13.3008,4.60068,2470.366,2021-8-01T13:07:06Z
2021-08-01T11:08:52Z,42.805,6.029,13.3011,4.60035,2470.39,2021-8-01T13:10:09Z
2021-08-01T11:11:55Z,42.805,6.029,13.3035,4.60087,2470.404,2021-8-01T13:13:13Z
2021-08-01T11:14:58Z,42.805,6.029,13.3031,4.60039,2470.427,2021-8-01T13:16:16Z
2021-08-01T11:18:01Z,42.805,6.029,13.3033,4.60033,2470.413,2021-8-01T13:19:19Z
2021-08-01T11:21:05Z,42.805,6.029,13.3024,4.60104,2470.427,2021-8-01T13:22:22Z
2021-08-01T11:24:08Z,42.805,6.029,13.3022,4.60097,2470.45,2021-8-01T13:25:25Z
2021-08-01T11:27:11Z,42.805,6.029,13.3019,4.60046,2470.437,2021-8-01T13:28:28Z
2021-08-01T11:30:14Z,42.805,6.029,13.3048,4.60058,2470.427,2021-8-01T13:31:31Z
2021-08-01T11:33:17Z,42.805,6.029,13.3024,4.60048,2470.413,2021-8-01T13:34:34Z
2021-08-01T11:36:20Z,42.805,6.029,13.3051,4.60082,2470.437,2021-8-01T13:37:38Z
2021-08-01T11:39:23Z,42.805,6.029,13.3004,4.60062,2470.437,2021-8-01T13:40:41Z
2021-08-01T11:42:26Z,42.805,6.029,13.3015,4.60052,2470.404,2021-8-01T13:43:44Z
2021-08-01T11:45:30Z,42.805,6.029,13.3029,4.60029,2470.427,2021-8-01T13:46:47Z
2021-08-01T11:48:33Z,42.805,6.029,13.3058,4.60031,2470.427,2021-8-01T13:49:50Z
2021-08-01T11:51:36Z,42.805,6.029,13.3026,4.60014,2470.413,2021-8-01T13:52:53Z
2021-08-01T11:54:39Z,42.805,6.029,13.3011,4.60033,2470.413,2021-8-01T13:55:56Z
2021-08-01T11:57:42Z,42.805,6.029,13.3024,4.60026,2470.437,2021-8-01T13:59:00Z
2021-08-01T12:00:45Z,42.805,6.029,13.3024,4.60022,2470.437,2021-8-01T14:02:03Z
2021-08-01T12:03:48Z,42.805,6.029,13.3036,4.60027,2470.437,2021-8-01T14:05:06Z
2021-08-01T12:06:51Z,42.805,6.029,13.3030,4.60059,2470.437,2021-8-01T14:08:09Z
2021-08-01T12:09:55Z,42.805,6.029,13.3030,4.60041,2470.437,2021-8-01T14:11:12Z
2021-08-01T12:12:58Z,42.805,6.029,13.3029,4.60040,2470.427,2021-8-01T14:14:15Z
2021-08-01T12:16:01Z,42.805,6.029,13.3043,4.60057,2470.427,2021-8-01T14:17:18Z
2021-08-01T12:19:04Z,42.805,6.029,13.3036,4.60046,2470.427,2021-8-01T14:20:21Z
2021-08-01T12:22:07Z,42.805,6.029,13.3013,4.60041,2470.427,2021-8-01T14:23:24Z
2021-08-01T12:25:10Z,42.805,6.029,13.3024,4.60029,2470.413,2021-8-01T14:26:28Z
2021-08-01T12:28:13Z,42.805,6.029,13.3040,4.60021,2470.413,2021-8-01T14:29:31Z
2021-08-01T12:31:16Z,42.805,6.029,13.3024,4.60019,2470.413,2021-8-01T14:32:34Z
2021-08-01T12:34:20Z,42.805,6.029,13.3006,4.60031,2470.45,2021-8-01T14:35:37Z
2021-08-01T12:37:23Z,42.805,6.029,13.3005,4.60031,2470.45,2021-8-01T14:38:40Z
2021-08-01T12:40:26Z,42.805,6.029,13.3036,4.60027,2470.45,2021-8-01T14:41:43Z
2021-08-01T12:43:29Z,42.805,6.029,13.3022,4.60033,2470.413,2021-8-01T14:44:46Z
2021-08-01T12:46:32Z,42.805,6.029,13.3030,4.60032,2470.427,2021-8-01T14:47:49Z
2021-08-01T12:49:35Z,42.805,6.029,13.3014,4.60026,2470.413,2021-8-01T14:50:53Z
2021-08-01T12:52:38Z,42.805,6.029,13.3015,4.60031,2470.437,2021-8-01T14:53:56Z
2021-08-01T12:55:42Z,42.805,6.029,13.3015,4.60022,2470.45,2021-8-01T14:56:59Z
2021-08-01T12:58:45Z,42.805,6.029,13.3015,4.60019,2470.437,2021-8-01T15:00:02Z
2021-08-01T13:01:48Z,42.805,6.029,13.3015,4.60054,2470.45,2021-8-01T15:03:05Z
2021-08-01T13:04:51Z,42.805,6.029,13.3083,4.60021,2470.404,2021-8-01T15:06:08Z
2021-08-01T13:07:54Z,42.805,6.029,13.3021,4.60023,2470.437,2021-8-01T15:09:11Z
2021-08-01T13:10:57Z,42.805,6.029,13.3015,4.60033,2470.413,2021-8-01T15:12:14Z
2021-08-01T13:14:00Z,42.805,6.029,13.3054,4.60064,2470.437,2021-8-01T15:15:18Z
2021-08-01T13:17:03Z,42.805,6.029,13.3058,4.60046,2470.441,2021-8-01T15:18:21Z
2021-08-01T13:20:06Z,42.805,6.029,13.3065,4.60031,2470.427,2021-8-01T15:21:24Z
2021-08-01T13:23:10Z,42.805,6.029,13.3048,4.60061,2470.437,2021-8-01T15:24:27Z
2021-08-01T13:26:13Z,42.805,6.029,13.3052,4.60031,2470.427,2021-8-01T15:27:30Z
2021-08-01T13:29:16Z,42.805,6.029,13.3042,4.60049,2470.45,2021-8-01T15:30:33Z
2021-08-01T13:32:19Z,42.805,6.029,13.3037,4.60043,2470.413,2021-8-01T15:33:36Z
2021-08-01T13:35:22Z,42.805,6.029,13.3028,4.60056,2470.413,2021-8-01T15:36:39Z
2021-08-01T13:38:25Z,42.805,6.029,13.3049,4.60037,2470.413,2021-8-01T15:39:43Z
2021-08-01T13:41:28Z,42.805,6.029,13.3056,4.60021,2470.427,2021-8-01T15:42:46Z
2021-08-01T13:44:31Z,42.805,6.029,13.3061,4.60022,2470.45,2021-8-01T15:45:49Z
2021-08-01T13:47:35Z,42.805,6.029,13.3030,4.60029,2470.437,2021-8-01T15:48:52Z
2021-08-01T13:50:38Z,42.805,6.029,13.3016,4.60027,2470.427,2021-8-01T15:51:55Z
2021-08-01T13:53:41Z,42.805,6.029,13.3024,4.60044,2470.46,2021-8-01T15:54:58Z
2021-08-01T13:56:44Z,42.805,6.029,13.3014,4.60044,2470.46,2021-8-01T15:58:01Z
2021-08-01T13:59:47Z,42.805,6.029,13.3021,4.60036,2470.413,2021-8-01T16:01:04Z
2021-08-01T14:02:50Z,42.805,6.029,13.3049,4.60047,2470.427,2021-8-01T16:04:08Z
2021-08-01T14:05:53Z,42.805,6.029,13.3058,4.60071,2470.437,2021-8-01T16:07:11Z
2021-08-01T14:08:56Z,42.805,6.029,13.3046,4.60029,2470.413,2021-8-01T16:10:14Z
2021-08-01T14:12:00Z,42.805,6.029,13.3050,4.60042,2470.437,2021-8-01T16:13:17Z
2021-08-01T14:15:03Z,42.805,6.029,13.3049,4.60044,2470.45,2021-8-01T16:16:20Z
2021-08-01T14:18:06Z,42.805,6.029,13.3048,4.60035,2470.474,2021-8-01T16:19:23Z
2021-08-01T14:21:09Z,42.805,6.029,13.3022,4.60090,2470.427,2021-8-01T16:22:26Z
2021-08-01T14:24:12Z,42.805,6.029,13.3028,4.60043,2470.45,2021-8-01T16:25:29Z
2021-08-01T14:27:15Z,42.805,6.029,13.3027,4.60068,2470.413,2021-8-01T16:28:32Z
2021-08-01T14:30:18Z,42.805,6.029,13.3013,4.60087,2470.437,2021-8-01T16:31:36Z
2021-08-01T14:33:21Z,42.805,6.029,13.3039,4.60064,2470.413,2021-8-01T16:34:39Z
2021-08-01T14:36:25Z,42.805,6.029,13.3046,4.60044,2470.413,2021-8-01T16:37:42Z
2021-08-01T14:39:28Z,42.805,6.029,13.3037,4.60062,2470.45,2021-8-01T16:40:45Z
2021-08-01T14:42:31Z,42.805,6.029,13.3039,4.60062,2470.437,2021-8-01T16:43:48Z
2021-08-01T14:45:34Z,42.805,6.029,13.3037,4.60043,2470.45,2021-8-01T16:46:51Z
2021-08-01T14:48:37Z,42.805,6.029,13.3048,4.60061,2470.427,2021-8-01T16:49:54Z
2021-08-01T14:51:40Z,42.805,6.029,13.3051,4.60061,2470.413,2021-8-01T16:52:57Z
2021-08-01T14:54:43Z,42.805,6.029,13.3063,4.60062,2470.45,2021-8-01T16:56:01Z
2021-08-01T14:57:46Z,42.805,6.029,13.3054,4.60063,2470.46,2021-8-01T16:59:04Z
2021-08-01T15:00:49Z,42.805,6.029,13.3033,4.60074,2470.46,2021-8-01T17:02:07Z
2021-08-01T15:03:53Z,42.805,6.029,13.3054,4.60072,2470.45,2021-8-01T17:05:10Z
2021-08-01T15:06:56Z,42.805,6.029,13.3070,4.60058,2470.427,2021-8-01T17:08:13Z
2021-08-01T15:09:59Z,42.805,6.029,13.3058,4.60051,2470.413,2021-8-01T17:11:16Z